DW3900 Weather Reports


time (UTC)temp
F
wind
direction
speed
knots
gust
knots
rain 1hr
in
rain 24hr
in
rain mn
in
humidity
%
barometer
mb
20260504081523 55 176 7.8 12.2 0.00 0.00 0.00 63 1010.2
20260504060120 56 188 4.3 9.6 0.00 0.00 0.00 60 1011.6
20260504050103 56 172 5.2 8.7 0.00 0.00 0.00 59 1012.0
20260504044550 56 181 4.3 9.6 0.00 0.00 0.00 61 1012.1
20260504043052 55 186 2.6 6.1 0.00 0.00 0.00 62 1012.3
20260504041548 55 163 0.0 4.3 0.00 0.00 0.00 62 1012.5
20260504040045 55 170 0.9 3.5 0.00 0.00 0.00 62 1012.6
20260504034544 55 159 2.6 4.3 0.00 0.00 0.00 63 1012.6
20260504033048 57 189 0.9 5.2 0.00 0.00 0.00 61 1012.8
20260504031547 58 191 0.9 2.6 0.00 0.00 0.00 55 1013.0
20260504030044 60 191 0.0 0.0 0.00 0.00 0.00 52 1013.0
20260504024543 60 190 1.7 7.0 0.00 0.00 0.00 50 1012.8
20260504023042 60 173 3.5 7.0 0.00 0.00 0.00 50 1012.4
20260504021541 60 189 5.2 7.8 0.00 0.00 0.00 49 1012.0
20260504020041 61 198 5.2 9.6 0.00 0.00 0.00 49 1011.9
20260504014553 61 173 8.7 12.2 0.00 0.00 0.00 48 1011.9
20260504013041 61 178 7.0 9.6 0.00 0.00 0.00 49 1012.1
20260504011539 61 203 5.2 8.7 0.00 0.00 0.00 49 1012.3
20260504010037 61 209 2.6 5.2 0.00 0.00 0.00 49 1012.6
20260504004534 62 194 2.6 7.8 0.00 0.00 0.00 48 1012.5
20260504003033 63 207 1.7 7.0 0.00 0.00 0.00 47 1012.5
20260504001540 64 175 3.5 7.8 0.00 0.00 0.00 45 1012.3
20260504000040 65 186 5.2 8.7 0.00 0.00 0.00 43 1012.5
20260503234529 65 211 2.6 7.8 0.00 0.00 0.00 43 1012.6
20260503233028 66 209 6.1 12.2 0.00 0.00 0.00 42 1012.8
20260503231526 66 212 6.1 10.4 0.00 0.00 0.00 42 1013.1
20260503230031 66 192 5.2 12.2 0.00 0.00 0.00 41 1013.2
20260503224523 66 236 6.1 11.3 0.00 0.00 0.00 43 1013.4
20260503223019 66 206 7.8 12.2 0.00 0.00 0.00 40 1013.7
20260503221517 66 244 1.7 7.8 0.00 0.00 0.00 43 1014.2
20260503220020 67 214 3.5 13.0 0.00 0.00 0.00 41 1014.4
20260503214523 67 236 7.0 14.8 0.00 0.04 0.00 38 1014.5
20260503213010 67 224 1.7 9.6 0.00 0.04 0.00 40 1014.7
20260503211510 67 225 7.0 14.8 0.00 0.04 0.00 39 1015.0
20260503210013 66 190 6.1 12.2 0.00 0.04 0.00 38 1015.3
20260503204504 67 213 2.6 12.2 0.00 0.04 0.00 37 1015.5
20260503203108 67 231 3.5 10.4 0.00 0.04 0.00 41 1015.8
20260503201557 67 232 3.5 16.5 0.00 0.04 0.00 46 1016.1
20260503200055 66 213 4.3 12.2 0.00 0.04 0.00 43 1016.4
20260503194608 66 227 8.7 13.0 0.00 0.04 0.00 41 1016.9
20260503193050 65 197 9.6 16.5 0.00 0.04 0.00 43 1017.2
20260503191545 65 221 3.5 8.7 0.00 0.04 0.00 43 1017.5
20260503190049 65 219 7.8 13.9 0.00 0.04 0.00 42 1017.7
20260503184541 64 232 2.6 9.6 0.00 0.04 0.00 42 1017.9
20260503183037 64 215 5.2 9.6 0.00 0.04 0.00 44 1018.2
20260503181536 63 226 2.6 10.4 0.00 0.04 0.00 45 1018.2
20260503180033 63 194 9.6 13.0 0.00 0.04 0.00 42 1018.4
20260503174531 63 221 7.8 13.0 0.00 0.04 0.00 43 1018.6
20260503173044 62 206 4.3 12.2 0.00 0.04 0.00 43 1018.8
20260503171528 62 167 8.7 14.8 0.00 0.04 0.00 46 1019.1